IGO2237 VABB-VAAH

Flight info

Callsign IGO2237
Flight time 0h 47m
Altitude 29000
Route ANOLI2A ISRIS G208 APANO APANO1A
Aircraft A21N/M-SDE2E3FGHIRWXY/LB1

Departure

Time 2026-05-07 16:52
Airport Chhatrapati Shivaji Maharaj International Airport (VABB)

Arrival

Time 2026-05-07 17:39
Airport Sardar Vallabh Patel International Airport (VAAH)
Time Latitude Longitude Altitude Speed Heading
2026-05-07 16:30 19.09340 72.87037 35 ft 0 kts 63°
2026-05-07 16:41 19.09337 72.87031 35 ft 2 kts 63°
2026-05-07 16:42 19.09330 72.87016 35 ft 2 kts 63°
2026-05-07 16:42 19.09323 72.87003 35 ft 2 kts 63°
2026-05-07 16:42 19.09317 72.86989 35 ft 2 kts 63°
2026-05-07 16:42 19.09311 72.86974 34 ft 2 kts 82°
2026-05-07 16:43 19.09311 72.86957 34 ft 2 kts 99°
2026-05-07 16:43 19.09315 72.86942 35 ft 2 kts 117°
2026-05-07 16:43 19.09323 72.86929 35 ft 0 kts 132°
2026-05-07 16:43 19.09327 72.86925 35 ft 1 kts 135°
2026-05-07 16:44 19.09328 72.86924 35 ft 0 kts 135°
2026-05-07 16:45 19.09323 72.86929 35 ft 2 kts 135°
2026-05-07 16:46 19.09306 72.86948 34 ft 4 kts 135°
2026-05-07 16:46 19.09275 72.86980 34 ft 7 kts 135°
2026-05-07 16:46 19.09240 72.87032 33 ft 9 kts 104°
2026-05-07 16:46 19.09236 72.87110 33 ft 11 kts 90°
2026-05-07 16:47 19.09236 72.87196 33 ft 10 kts 89°
2026-05-07 16:47 19.09204 72.87255 32 ft 11 kts 160°
2026-05-07 16:47 19.09117 72.87263 31 ft 13 kts 178°
2026-05-07 16:47 19.09062 72.87331 30 ft 14 kts 99°
2026-05-07 16:48 19.09055 72.87438 29 ft 15 kts 89°
2026-05-07 16:48 19.09057 72.87550 30 ft 14 kts 89°
2026-05-07 16:48 19.09055 72.87659 32 ft 14 kts 91°
2026-05-07 16:48 19.09056 72.87770 32 ft 15 kts 88°
2026-05-07 16:49 19.09061 72.87879 34 ft 14 kts 88°
2026-05-07 16:49 19.09061 72.87977 37 ft 12 kts 89°
2026-05-07 16:49 19.09027 72.88049 39 ft 11 kts 162°
2026-05-07 16:49 19.08939 72.88054 38 ft 14 kts 182°
2026-05-07 16:50 19.08886 72.87987 36 ft 10 kts 269°
2026-05-07 16:50 19.08886 72.87980 36 ft 0 kts 269°
2026-05-07 16:51 19.08886 72.87979 36 ft 0 kts 269°
2026-05-07 16:51 19.08886 72.87911 35 ft 36 kts 270°
2026-05-07 16:51 19.08879 72.87363 26 ft 108 kts 269°
2026-05-07 16:51 19.08866 72.86360 35 ft 163 kts 270°
2026-05-07 16:52 19.08861 72.85055 420 ft 180 kts 270°
2026-05-07 16:52 19.08843 72.83707 1034 ft 185 kts 270°
2026-05-07 16:52 19.08826 72.82367 1720 ft 181 kts 270°
2026-05-07 16:52 19.08809 72.80986 2028 ft 193 kts 270°
2026-05-07 16:53 19.08790 72.79511 2297 ft 207 kts 270°
2026-05-07 16:53 19.08768 72.77924 2571 ft 221 kts 270°
2026-05-07 16:53 19.08742 72.76196 2784 ft 241 kts 270°
2026-05-07 16:53 19.08778 72.74354 3152 ft 255 kts 281°
2026-05-07 16:54 19.09520 72.72623 3507 ft 267 kts 312°
2026-05-07 16:54 19.11032 72.71487 4137 ft 269 kts 341°
2026-05-07 16:54 19.12877 72.71275 4799 ft 271 kts
2026-05-07 16:54 19.14624 72.72078 5454 ft 275 kts 38°
2026-05-07 16:55 19.16063 72.73430 6153 ft 277 kts 38°
2026-05-07 16:55 19.17776 72.74353 6772 ft 280 kts 10°
2026-05-07 16:55 19.19701 72.74444 7464 ft 281 kts 359°
2026-05-07 16:55 19.21670 72.74374 8112 ft 284 kts 358°
2026-05-07 16:56 19.23670 72.74277 8745 ft 288 kts 357°
2026-05-07 16:56 19.25577 72.74174 9343 ft 291 kts 357°
2026-05-07 16:56 19.29723 72.74038 10364 ft 305 kts
2026-05-07 16:57 19.31862 72.74192 10648 ft 319 kts
2026-05-07 16:57 19.34109 72.74509 10925 ft 333 kts
2026-05-07 16:57 19.36402 72.74869 11392 ft 340 kts
2026-05-07 16:57 19.38722 72.75236 11986 ft 342 kts
2026-05-07 16:58 19.41059 72.75602 12558 ft 345 kts
2026-05-07 16:58 19.43436 72.75972 13119 ft 348 kts
2026-05-07 16:58 19.45823 72.76341 13672 ft 351 kts
2026-05-07 16:58 19.48239 72.76714 14217 ft 353 kts
2026-05-07 16:59 19.50665 72.77087 14751 ft 356 kts
2026-05-07 16:59 19.53110 72.77464 15275 ft 359 kts
2026-05-07 16:59 19.55575 72.77844 15790 ft 362 kts
2026-05-07 16:59 19.58079 72.78229 16301 ft 365 kts
2026-05-07 17:00 19.60571 72.78612 16798 ft 368 kts
2026-05-07 17:00 19.63092 72.79000 17284 ft 370 kts
2026-05-07 17:00 19.65638 72.79392 17763 ft 373 kts
2026-05-07 17:00 19.68194 72.79786 18233 ft 376 kts
2026-05-07 17:01 19.70762 72.80181 18693 ft 379 kts
2026-05-07 17:01 19.73385 72.80585 19150 ft 381 kts
2026-05-07 17:01 19.76041 72.80995 19600 ft 384 kts
2026-05-07 17:01 19.78729 72.81410 20041 ft 387 kts
2026-05-07 17:02 19.81390 72.81821 20466 ft 389 kts
2026-05-07 17:02 19.84052 72.82232 20879 ft 392 kts
2026-05-07 17:02 19.86744 72.82648 21285 ft 395 kts
2026-05-07 17:02 19.89409 72.83059 21675 ft 397 kts
2026-05-07 17:03 19.92148 72.83482 22065 ft 399 kts
2026-05-07 17:03 19.94820 72.83894 22435 ft 402 kts
2026-05-07 17:03 19.97545 72.84315 22802 ft 404 kts
2026-05-07 17:03 20.00257 72.84734 23157 ft 406 kts
2026-05-07 17:04 20.03025 72.85162 23512 ft 409 kts
2026-05-07 17:04 20.05794 72.85590 23856 ft 411 kts
2026-05-07 17:04 20.08622 72.86026 24198 ft 413 kts
2026-05-07 17:04 20.11463 72.86414 24533 ft 415 kts
2026-05-07 17:05 20.14300 72.86771 24857 ft 417 kts
2026-05-07 17:05 20.17161 72.87125 25176 ft 420 kts
2026-05-07 17:05 20.20056 72.87487 25491 ft 422 kts
2026-05-07 17:05 20.22980 72.87856 25801 ft 423 kts
2026-05-07 17:06 20.25904 72.88228 26101 ft 425 kts
2026-05-07 17:06 20.28860 72.88605 26444 ft 426 kts
2026-05-07 17:06 20.31758 72.88975 26926 ft 423 kts
2026-05-07 17:06 20.34682 72.89349 27280 ft 423 kts
2026-05-07 17:07 20.37618 72.89725 27553 ft 425 kts
2026-05-07 17:07 20.40567 72.90102 27822 ft 427 kts
2026-05-07 17:07 20.43541 72.90484 28097 ft 429 kts
2026-05-07 17:07 20.46462 72.90859 28365 ft 431 kts
2026-05-07 17:08 20.49171 72.91206 28608 ft 432 kts
2026-05-07 17:08 20.51687 72.91529 28775 ft 434 kts
2026-05-07 17:08 20.57820 72.92316 28797 ft 434 kts
2026-05-07 17:09 20.64262 72.93143 28799 ft 434 kts
2026-05-07 17:09 20.70259 72.93915 28800 ft 434 kts
2026-05-07 17:10 20.76238 72.94612 28800 ft 434 kts
2026-05-07 17:10 20.82251 72.94881 28800 ft 434 kts
2026-05-07 17:11 20.87813 72.95071 28800 ft 434 kts
2026-05-07 17:11 20.94119 72.95293 28800 ft 434 kts
2026-05-07 17:12 21.00207 72.95515 28799 ft 435 kts
2026-05-07 17:12 21.06166 72.95743 28803 ft 426 kts
2026-05-07 17:13 21.12051 72.95951 28802 ft 421 kts
2026-05-07 17:13 21.17856 72.96159 28761 ft 416 kts
2026-05-07 17:14 21.20734 72.96281 28426 ft 412 kts
2026-05-07 17:14 21.23584 72.96428 27858 ft 411 kts
2026-05-07 17:14 21.26418 72.96579 27315 ft 409 kts
2026-05-07 17:14 21.29250 72.96729 26817 ft 405 kts
2026-05-07 17:15 21.32026 72.96877 26331 ft 402 kts
2026-05-07 17:15 21.34827 72.97024 25835 ft 398 kts
2026-05-07 17:15 21.37575 72.97168 25342 ft 395 kts
2026-05-07 17:15 21.40335 72.97313 24847 ft 392 kts
2026-05-07 17:16 21.43040 72.97456 24360 ft 389 kts
2026-05-07 17:16 21.45737 72.97597 23869 ft 386 kts
2026-05-07 17:16 21.48397 72.97736 23379 ft 383 kts
2026-05-07 17:16 21.51077 72.97877 22888 ft 381 kts
2026-05-07 17:17 21.53673 72.98013 22410 ft 378 kts
2026-05-07 17:17 21.56281 72.98092 21924 ft 375 kts 359°
2026-05-07 17:17 21.58867 72.97942 21438 ft 372 kts 354°
2026-05-07 17:17 21.61429 72.97545 20949 ft 370 kts 349°
2026-05-07 17:18 21.63765 72.97021 20497 ft 368 kts 348°
2026-05-07 17:18 21.66308 72.96414 19994 ft 366 kts 348°
2026-05-07 17:18 21.68785 72.95820 19498 ft 364 kts 348°
2026-05-07 17:18 21.71272 72.95225 19000 ft 362 kts 348°
2026-05-07 17:19 21.73705 72.94647 18512 ft 360 kts 348°
2026-05-07 17:19 21.76139 72.94069 18019 ft 358 kts 348°
2026-05-07 17:19 21.78621 72.93581 17516 ft 355 kts 356°
2026-05-07 17:19 21.81060 72.93478 17271 ft 353 kts
2026-05-07 17:20 21.83559 72.93469 17016 ft 353 kts
2026-05-07 17:20 21.86027 72.93458 16764 ft 353 kts
2026-05-07 17:20 21.88491 72.93431 16512 ft 352 kts 360°
2026-05-07 17:20 21.90921 72.93391 16262 ft 350 kts 360°
2026-05-07 17:21 21.93325 72.93343 16015 ft 349 kts 359°
2026-05-07 17:21 21.95748 72.93289 15764 ft 348 kts 359°
2026-05-07 17:21 21.98185 72.93231 15512 ft 347 kts 359°
2026-05-07 17:21 22.00671 72.93171 15266 ft 368 kts 359°
2026-05-07 17:22 22.03268 72.93107 15012 ft 375 kts 359°
2026-05-07 17:22 22.05912 72.93040 14807 ft 374 kts 359°
2026-05-07 17:22 22.08513 72.92973 14781 ft 375 kts 359°
2026-05-07 17:22 22.11143 72.92906 14777 ft 375 kts 359°
2026-05-07 17:23 22.13771 72.92838 14775 ft 375 kts 359°
2026-05-07 17:23 22.16389 72.92771 14774 ft 375 kts 359°
2026-05-07 17:23 22.19003 72.92704 14774 ft 375 kts 359°
2026-05-07 17:23 22.21641 72.92636 14773 ft 375 kts 359°
2026-05-07 17:24 22.24277 72.92568 14772 ft 375 kts 359°
2026-05-07 17:24 22.26902 72.92500 14534 ft 374 kts 359°
2026-05-07 17:24 22.29479 72.92434 14285 ft 373 kts 359°
2026-05-07 17:24 22.32090 72.92366 14032 ft 372 kts 359°
2026-05-07 17:25 22.34707 72.92299 13778 ft 371 kts 359°
2026-05-07 17:25 22.37296 72.92232 13526 ft 370 kts 359°
2026-05-07 17:25 22.39865 72.92165 13275 ft 368 kts 359°
2026-05-07 17:25 22.42419 72.92099 13025 ft 367 kts 359°
2026-05-07 17:26 22.45022 72.92032 12769 ft 366 kts 359°
2026-05-07 17:26 22.47555 72.91966 12519 ft 365 kts 359°
2026-05-07 17:26 22.50116 72.91900 12266 ft 364 kts 359°
2026-05-07 17:26 22.52660 72.91834 12014 ft 363 kts 359°
2026-05-07 17:27 22.55199 72.91692 11757 ft 363 kts 354°
2026-05-07 17:27 22.57689 72.91286 11509 ft 362 kts 351°
2026-05-07 17:27 22.60180 72.90807 11256 ft 361 kts 351°
2026-05-07 17:27 22.62674 72.90312 10886 ft 356 kts 350°
2026-05-07 17:28 22.65117 72.89825 10304 ft 356 kts 350°
2026-05-07 17:28 22.67557 72.89336 9743 ft 355 kts 350°
2026-05-07 17:28 22.69975 72.88854 9277 ft 351 kts 350°
2026-05-07 17:28 22.72346 72.88380 9082 ft 338 kts 350°
2026-05-07 17:29 22.74648 72.87919 8881 ft 327 kts 350°
2026-05-07 17:29 22.76855 72.87478 8686 ft 316 kts 350°
2026-05-07 17:29 22.79004 72.87048 8496 ft 306 kts 350°
2026-05-07 17:29 22.81098 72.86629 8304 ft 296 kts 350°
2026-05-07 17:30 22.83103 72.86228 7996 ft 292 kts 350°
2026-05-07 17:30 22.85129 72.85825 7579 ft 291 kts 350°
2026-05-07 17:30 22.87128 72.85430 7173 ft 290 kts 350°
2026-05-07 17:30 22.89120 72.85042 6779 ft 288 kts 350°
2026-05-07 17:31 22.91075 72.84689 6526 ft 281 kts 350°
2026-05-07 17:31 22.93011 72.84358 6205 ft 276 kts 350°
2026-05-07 17:31 22.94932 72.84038 5806 ft 275 kts 350°
2026-05-07 17:31 22.96816 72.83733 5412 ft 274 kts 350°
2026-05-07 17:32 22.98709 72.83435 5018 ft 273 kts 350°
2026-05-07 17:32 23.00595 72.83144 4622 ft 272 kts 350°
2026-05-07 17:32 23.02506 72.82855 4229 ft 271 kts 351°
2026-05-07 17:32 23.03738 72.82672 4105 ft 264 kts 351°
2026-05-07 17:33 23.06125 72.82323 3873 ft 252 kts 351°
2026-05-07 17:33 23.07869 72.82071 3703 ft 244 kts 351°
2026-05-07 17:33 23.09537 72.81832 3537 ft 235 kts 351°
2026-05-07 17:33 23.11141 72.81604 3326 ft 230 kts 351°
2026-05-07 17:34 23.12744 72.81378 3020 ft 229 kts 351°
2026-05-07 17:34 23.14330 72.81152 2705 ft 228 kts 351°
2026-05-07 17:34 23.15902 72.80913 2393 ft 227 kts 346°
2026-05-07 17:34 23.17309 72.80159 2071 ft 221 kts 313°
2026-05-07 17:35 23.18040 72.78760 2000 ft 209 kts 279°
2026-05-07 17:35 23.18076 72.77238 1995 ft 190 kts 264°
2026-05-07 17:35 23.17922 72.75848 2007 ft 175 kts 261°
2026-05-07 17:35 23.17691 72.74591 2030 ft 166 kts 247°
2026-05-07 17:36 23.17066 72.73518 2012 ft 166 kts 231°
2026-05-07 17:36 23.16277 72.72580 2000 ft 166 kts 226°
2026-05-07 17:36 23.15457 72.71696 1971 ft 166 kts 225°
2026-05-07 17:36 23.14615 72.70808 1776 ft 165 kts 225°
2026-05-07 17:37 23.13787 72.69930 1553 ft 165 kts 225°
2026-05-07 17:37 23.12959 72.69046 1332 ft 165 kts 225°
2026-05-07 17:37 23.12085 72.68109 1165 ft 189 kts 225°
2026-05-07 17:37 23.11124 72.67083 888 ft 196 kts 225°
2026-05-07 17:38 23.10169 72.66062 604 ft 182 kts 225°
2026-05-07 17:38 23.09297 72.65130 346 ft 170 kts 225°
2026-05-07 17:38 23.08477 72.64249 193 ft 153 kts 225°
2026-05-07 17:38 23.07833 72.63563 191 ft 103 kts 225°
2026-05-07 17:39 23.07428 72.63132 187 ft 66 kts 224°
2026-05-07 17:39 23.07107 72.62787 187 ft 62 kts 225°
2026-05-07 17:39 23.06834 72.62495 189 ft 46 kts 223°
2026-05-07 17:39 23.06763 72.62317 189 ft 17 kts 322°
2026-05-07 17:40 23.06804 72.62266 189 ft 0 kts 313°
2026-05-07 17:40 23.06810 72.62259 189 ft 2 kts 313°
2026-05-07 17:40 23.06824 72.62243 189 ft 3 kts 313°
2026-05-07 17:40 23.06845 72.62219 189 ft 5 kts 314°
2026-05-07 17:41 23.06874 72.62188 189 ft 6 kts 316°
2026-05-07 17:41 23.06911 72.62149 189 ft 8 kts 316°
2026-05-07 17:41 23.06930 72.62095 189 ft 8 kts 245°
2026-05-07 17:41 23.06895 72.62037 189 ft 9 kts 225°
2026-05-07 17:42 23.06865 72.61980 189 ft 9 kts 314°
2026-05-07 17:42 23.06909 72.61926 189 ft 8 kts 330°
2026-05-07 17:42 23.06971 72.61938 189 ft 10 kts 40°
2026-05-07 17:42 23.07029 72.61996 189 ft 9 kts 43°
2026-05-07 17:43 23.07033 72.62000 188 ft 0 kts 44°